Weather History for Spokane, WA

Change the Weather History Date:

Tuesday, May 14, 2013

  Actual Average Record
Temperature  
Mean Temperature 51 °F 55 °F  
Max Temperature 61 °F 66 °F 90 °F (1939)
Min Temperature 40 °F 43 °F 30 °F (1986)
Degree Days  
Heating Degree Days 14 11  
Month to date heating degree days 75 176  
Since 1 July heating degree days 5903 6312  
Cooling Degree Days 0 0  
Month to date cooling degree days 30 0  
Year to date cooling degree days 30 0  
Moisture  
Dew Point 29 °F    
Average Humidity 51    
Maximum Humidity 76    
Minimum Humidity 25    
Precipitation  
Precipitation 0.00 in 0.05 in 0.59 in (2001)
Month to date precipitation 0.25 0.64  
Year to date precipitation 4.38 6.65  
Snow  
Snow 0.00 in 0.00 in 0.40 in (1974)
Month to date snowfall 0.0 0.1  
Since 1 July snowfall 43.5 44.9  
Snow Depth 0.00 in    
Sea Level Pressure  
Sea Level Pressure 30.11 in    
Wind  
Wind Speed 6 mph (SW)    
Max Wind Speed 17 mph    
Max Gust Speed 22 mph    
Visibility 10 miles    
Events      
T = Trace of Precipitation, MM = Missing Value Source: NWS Daily Summary

Daily Weather History Graph

Daily Weather History Graph

Search for Another Location

Airport:

Trip Planner

Search our weather history database for the weather conditions in past years. The results will help you decide how hot, cold, wet, or windy it might be!

Date:

Astronomy

May. 14, 2013 Rise Set
Actual Time 5:13 AM PDT 8:20 PM PDT
Civil Twilight 4:36 AM PDT 8:56 PM PDT
Nautical Twilight 3:49 AM PDT 9:44 PM PDT
Astronomical Twilight 2:51 AM PDT 10:43 PM PDT
Moon 8:58 AM PDT (5/14) No Moon Set
Length of Visible Light 16h 19m
Length of Day
15h 06m
Waxing Crescent, 19% of the Moon is Illuminated
May 14
Waxing Crescent
May 17
First Quarter
May 24
Full
May 31
Last Quarter
Jun 8
New

Hourly Weather History & Observations

Time (PDT) Temp. Windchill Dew Point Humidity Pressure Visibility Wind Dir Wind Speed Gust Speed Precip Events Conditions
12:53 AM 42.1 °F 37.7 °F 30.9 °F 65% 30.10 in 10.0 mi WSW 6.9 mph - N/A   Partly Cloudy
1:53 AM 42.1 °F 39.2 °F 30.0 °F 62% 30.12 in 10.0 mi SW 4.6 mph - N/A   Clear
2:53 AM 42.1 °F 36.6 °F 30.9 °F 65% 30.15 in 10.0 mi South 9.2 mph - N/A   Clear
3:53 AM 41.0 °F 35.2 °F 30.9 °F 67% 30.15 in 10.0 mi South 9.2 mph - N/A   Partly Cloudy
4:53 AM 39.9 °F 33.9 °F 32.0 °F 73% 30.14 in 10.0 mi South 9.2 mph - N/A   Scattered Clouds
5:53 AM 41.0 °F 35.8 °F 32.0 °F 70% 30.14 in 10.0 mi SSW 8.1 mph - N/A   Mostly Cloudy
6:53 AM 43.0 °F 37.2 °F 33.1 °F 68% 30.15 in 10.0 mi SW 10.4 mph - N/A   Mostly Cloudy
7:53 AM 45.0 °F 40.6 °F 33.1 °F 63% 30.15 in 10.0 mi SW 8.1 mph - N/A   Mostly Cloudy
8:53 AM 48.0 °F - 33.1 °F 56% 30.15 in 10.0 mi SSW 3.5 mph - N/A   Mostly Cloudy
9:53 AM 51.1 °F - 30.9 °F 46% 30.14 in 10.0 mi SW 9.2 mph - N/A   Mostly Cloudy
10:53 AM 52.0 °F - 28.9 °F 41% 30.15 in 10.0 mi SW 6.9 mph 16.1 mph N/A   Mostly Cloudy
11:53 AM 54.0 °F - 30.0 °F 40% 30.14 in 10.0 mi WSW 6.9 mph - N/A   Mostly Cloudy
12:53 PM 55.0 °F - 30.0 °F 38% 30.14 in 10.0 mi SSW 11.5 mph - N/A   Overcast
1:53 PM 55.0 °F - 27.0 °F 34% 30.12 in 10.0 mi South 5.8 mph - N/A   Overcast
2:53 PM 57.9 °F - 27.0 °F 31% 30.11 in 10.0 mi SW 8.1 mph - N/A   Mostly Cloudy
3:53 PM 59.0 °F - 26.1 °F 28% 30.09 in 10.0 mi SW 6.9 mph - N/A   Mostly Cloudy
4:53 PM 60.1 °F - 24.1 °F 25% 30.08 in 10.0 mi SW 6.9 mph - N/A   Mostly Cloudy
5:53 PM 61.0 °F - 26.1 °F 26% 30.07 in 10.0 mi NNW 4.6 mph - N/A   Scattered Clouds
6:53 PM 60.1 °F - 24.1 °F 25% 30.06 in 10.0 mi West 8.1 mph - N/A   Scattered Clouds
7:53 PM 57.0 °F - 24.1 °F 28% 30.06 in 10.0 mi West 3.5 mph - N/A   Partly Cloudy
8:53 PM 54.0 °F - 27.0 °F 35% 30.07 in 10.0 mi SSW 3.5 mph - N/A   Scattered Clouds
9:53 PM 51.1 °F - 30.0 °F 44% 30.08 in 10.0 mi SW 3.5 mph - N/A   Partly Cloudy
10:53 PM 50.0 °F - 28.9 °F 44% 30.08 in 10.0 mi SSW 5.8 mph - N/A   Partly Cloudy
11:53 PM 48.0 °F - 28.0 °F 46% 30.08 in 10.0 mi Calm Calm - N/A   Partly Cloudy